Content
SEND FEEDBACK

Daily
Averages
Monthly
Summary
Mexico

XULA, QUINTANA ROO


Home > North America > Mexico > Quintana Roo
Elevation: 85 feet     Latitude: 18 34N     Longitude: 088 27W

WEATHER
 
SELECT A DAY
Number of Records: 122,408;   Date Range: 1/1/95 - 8/10/14
 
SHARE

PRINT THIS DATA

[ ← Previous Day ]
WEATHER ALMANAC - JANUARY 17, 2014
[ Next Day → ]
[ °C ]   °F
Weather ElementAverageHighLow
Temperature66.9 °F74 °F (2:50 pm)55 °F (5:50 am)
Dewpoint59.3 °F66 °F (8:50 pm)51.8 °F (6:45 am)
Humidity75.7 %93 % (5:50 am)54 % (2:50 pm)
Barometer30.13 in30.36 in (1:53 pm)30.05 in (3:45 pm)
Wind Speed5.2 mph9.2 mph (1:53 pm)
Weather ElementAverage
Visibility6.5 mi
Wind DirectionSW (227.7 °)

Weather ElementTotal
Precipitation---
Heating Degree Days0.5 (Base 65)
Growing Degree Days14.5 (Base 50)
Averaged from 22 records on January 17, 2014
WEATHER CONDITIONS BREAKOUT
WIND DIRECTION BREAKOUT
WEATHER BY HOUR - JANUARY 17, 2014
[ °C ]   °F
Local TimeTemperatureDewpointHumidityBarometerVisibilityWind DirectionWind SpeedGust SpeedPrecipitationEventsConditions
5:50 AM55.0 °F54.0 °F93 %30.11 in5.0 miNW (320°)2.2 mphScattered Clouds
6:45 AM55.4 °F51.8 °F88 %30.10 in7.0 miCalmScattered Clouds
7:40 AM57.2 °F53.6 °F88 %30.12 in7.0 miCalmMostly Cloudy
8:40 AM59.0 °F53.6 °F82 %30.14 in7.0 miCalmOvercast
8:50 AM60.0 °F56.0 °F82 %30.15 in6.0 miNNW (340°)4.5 mphMostly Cloudy
9:41 AM62.6 °F53.6 °F72 %30.15 in7.0 miCalmOvercast
10:40 AM66.2 °F59.0 °F78 %30.14 in7.0 miCalmOvercast
11:40 AM68.0 °F60.8 °F78 %30.12 in7.0 miNorth (360°)6.9 mphOvercast
11:50 AM71.0 °F59.0 °F56 %30.12 in6.0 miWNW (300°)4.5 mphOvercast
12:40 PM69.8 °F60.8 °F73 %30.08 in7.0 miNorth (360°)6.9 mphOvercast
1:53 PM69.8 °F60.8 °F73 %30.36 in7.0 miNorth (360°)9.2 mphOvercast
2:45 PM69.8 °F60.8 °F73 %30.06 in7.0 miNorth (360°)9.2 mphOvercast
2:50 PM74.0 °F61.0 °F54 %30.07 in6.0 miWNW (300°)4.5 mphOvercast
3:45 PM71.6 °F60.8 °F69 %30.05 in7.0 miWNW (300°)9.2 mphOvercast
4:45 PM71.6 °F60.8 °F69 %30.07 in7.0 miWNW (300°)9.2 mphOvercast
5:45 PM71.6 °F60.8 °F69 %30.10 in7.0 miWest (270°)9.2 mphOvercast
5:50 PM71.0 °F65.0 °F78 %30.11 in5.0 miWNW (300°)2.2 mphOvercast
6:45 PM71.6 °F60.8 °F69 %30.11 in7.0 miWest (270°)9.2 mphOvercast
7:45 PM69.8 °F60.8 °F73 %30.13 in7.0 miWest (270°)9.2 mphMostly Cloudy
8:45 PM69.8 °F60.8 °F73 %30.15 in7.0 miWest (270°)9.2 mphMostly Cloudy
8:50 PM69.0 °F66.0 °F88 %30.17 in5.0 miNorth4.5 mphOvercast
11:50 PM68.0 °F65.0 °F87 %30.14 in5.0 miNNW (330°)4.5 mphOvercast
Hourly data recorded from MMCM, located miles away from Xula, Quintana Roo







STORIES FROM OUR PARTNERS